Regional Weather Roundup
Issued by NWS

Home | Current Version | Previous Version | Graphics & Text | Print | Product List | Glossary On
Versions: 1 2 3 4 5 6 7 8 9 10 11 12 13 14 15 16 17 18 19 20 21 22 23 24 25 26 27 28 29 30 31 32 33 34 35 36 37 38 39 40 41 42 43 44 45 46 47 48 49 50
000
ASUS43 KLMK 311102
RWRKY
KENTUCKY REGIONAL WEATHER ROUNDUP
NATIONAL WEATHER SERVICE LOUISVILLE KY
700 AM EDT TUE MAY 31 2016

NOTE "FAIR" INDICATES FEW OR NO CLOUDS BELOW 12,000 FEET
WITH NO SIGNIFICANT WEATHER AND/OR OBSTRUCTIONS TO VISIBILITY.

KYZ001>023-026-027-061>063-070>075-311200-
WESTERN AND SOUTH CENTRAL KENTUCKY

CITY           SKY/WX    TMP DP  RH WIND       PRES   REMARKS
PADUCAH        CLOUDY    67  65  93 CALM      29.95S
HENDERSON      PTCLDY    64  61  88 CALM      29.96S
OWENSBORO      CLOUDY    68  66  93 CALM      29.98R
HOPKINSVILLE   NOT AVBL
BOWLING GREEN  CLOUDY    65  62  90 CALM      29.98R
GLASGOW        NOT AVBL
$$

KYZ024-025-028>034-038-045-046-053-311200-
NORTH CENTRAL KENTUCKY

CITY           SKY/WX    TMP DP  RH WIND       PRES   REMARKS
LOUISVILLE/SDF CLOUDY    67  60  78 CALM      29.99R
LOUISVILLE/LOU CLOUDY    66  61  84 CALM      30.00R
FORT KNOX      CLOUDY    62  60  91 CALM      29.98R
$$

KYZ035>037-039>044-047>052-055>060-089>105-311200-
NORTHEAST KENTUCKY

CITY           SKY/WX    TMP DP  RH WIND       PRES   REMARKS
LEXINGTON      MOCLDY    63  59  87 CALM      30.01R
COVINGTON      MOCLDY    63  58  83 S3        30.01R
FRANKFORT      CLOUDY    61  57  87 CALM      30.00R
$$

KYZ054-064>069-076>088-106>120-311200-
SOUTHEAST KENTUCKY

CITY           SKY/WX    TMP DP  RH WIND       PRES   REMARKS
JACKSON        CLOUDY    62  59  90 CALM      30.02R
LONDON         CLOUDY    60  58  92 CALM      30.01R
SOMERSET       NOT AVBL
MIDDLESBORO    FOG       60  60 100 CALM      30.03R VSB<1/4
MONTICELLO     MOSUNNY   59  58  96 W9        30.03R
$$





USA.gov is the U.S. government's official web portal to all federal, state and local government web resources and services.